GEFSSE_con_cape1000_174.txt.gz
Probability
68 90 100 97 97 100 100 97 97 97 97 97 97 97 100 97 94 94 90 87 84 84 81 81 84 81 87 90 84 84 87 87 84 81 81 77 77 84 81 81 71 61 81
77 94 100 97 97 100 100 100 97 97 97 97 97 97 97 97 97 97 94 87 81 84 84 81 84 84 87 81 81 84 81 87 87 74 74 71 71 77 77 74 77 65 81
90 94 94 100 97 100 100 100 100 97 97 97 97 100 100 100 100 97 97 87 87 90 90 87 87 81 87 81 77 81 81 77 81 74 58 29 65 71 77 77 77 77 81
90 87 94 100 100 100 100 100 100 100 100 100 100 97 100 100 100 97 94 94 97 87 84 81 77 74 68 74 77 84 81 77 71 52 13 23 45 71 77 81 81 77 81
81 81 97 100 100 100 100 100 100 100 100 97 100 100 100 100 97 97 100 100 97 97 87 87 81 71 71 71 77 74 74 77 65 29 13 13 48 74 87 84 84 77 77
77 90 97 100 100 100 100 100 100 100 100 97 97 100 100 100 100 100 100 97 97 97 90 84 81 71 65 68 71 71 77 74 35 13 16 26 48 77 84 84 77 77 77
87 90 100 100 100 100 100 100 100 100 100 100 97 97 97 100 97 94 90 81 87 87 84 87 74 65 68 71 71 84 84 68 13 6 13 19 65 81 81 77 77 81 81
90 100 100 100 100 100 100 100 100 100 100 97 100 97 97 97 97 100 90 90 84 87 87 90 81 65 61 71 68 71 81 74 26 6 13 26 74 81 81 77 77 84 81
90 94 94 94 94 100 100 100 100 100 97 97 97 97 90 94 84 87 87 90 90 87 87 84 71 71 65 65 68 77 87 77 10 6 16 39 81 81 81 81 81 81 77
90 90 84 84 84 87 90 100 100 94 94 94 94 94 94 87 87 87 94 90 87 81 81 74 61 55 61 61 58 74 74 48 10 13 13 55 84 84 77 77 81 74 74
87 84 77 71 65 71 84 94 94 94 94 94 90 94 84 71 65 68 81 87 84 77 65 61 58 58 58 55 61 71 48 6 6 10 16 74 81 81 84 81 81 74 74
74 74 68 55 58 58 61 71 61 77 77 68 68 74 39 32 35 52 81 77 77 65 58 58 65 58 42 10 26 26 10 10 10 10 32 87 84 87 84 81 84 74 71
58 68 61 52 42 42 45 52 48 39 45 45 58 45 26 13 35 35 39 61 55 48 29 39 32 23 10 6 0 0 3 6 6 13 48 87 87 81 87 77 77 77 81
61 55 52 42 42 29 35 42 32 26 19 26 35 32 19 10 16 13 23 19 19 16 13 19 13 10 6 3 3 3 3 3 3 10 45 87 87 87 81 77 77 74 74
58 58 48 39 35 29 19 26 29 16 16 19 16 13 13 10 13 10 10 10 6 6 3 6 6 3 3 6 0 0 3 6 6 10 35 84 84 87 84 81 74 58 58
58 61 52 42 29 19 23 16 23 19 16 23 13 6 13 13 10 13 10 10 6 6 3 6 3 0 3 3 3 3 0 3 3 6 13 61 87 87 87 77 71 65 55
58 61 52 35 32 29 13 16 16 19 19 23 13 6 10 13 10 6 6 10 10 6 6 0 0 0 0 0 0 3 3 0 6 10 19 19 45 77 84 84 77 77 68
52 52 52 55 39 32 26 19 19 19 13 10 13 13 10 6 6 6 3 3 6 6 3 3 0 0 0 0 0 0 3 3 0 6 6 16 19 35 58 68 74 74 71
42 39 35 39 39 29 29 16 23 23 19 13 13 10 10 6 6 3 3 3 3 3 0 3 0 0 0 0 0 0 0 3 0 0 3 10 13 16 19 42 81 81 74
32 29 29 32 32 26 23 19 16 23 19 13 6 6 6 6 6 3 3 3 0 0 0 0 0 0 0 0 0 0 0 0 0 0 3 3 13 10 13 19 26 42 74
35 29 23 26 32 32 23 19 19 6 10 13 6 6 6 6 6 3 3 0 0 0 0 0 0 0 0 0 0 0 0 0 0 0 0 3 3 3 10 13 13 19 19
42 29 23 26 32 32 26 16 10 6 6 6 10 10 6 10 6 6 6 3 0 0 0 0 0 0 0 0 0 0 0 0 0 0 0 0 3 3 3 6 6 6 3
35 29 23 29 32 29 19 6 10 6 6 6 6 3 6 6 6 6 3 3 0 0 0 0 0 0 0 0 0 0 0 0 0 0 0 0 0 0 0 6 6 10 6
32 32 26 29 29 29 19 13 10 6 6 6 6 6 6 10 6 3 0 0 0 0 0 0 0 0 0 0 0 0 0 0 0 0 0 0 0 0 0 0 0 3 6
35 35 35 32 26 26 16 6 6 6 6 3 3 0 6 6 6 6 0 0 0 0 0 0 0 0 0 0 0 0 0 0 0 0 0 0 0 0 0 0 0 0 0
39 45 35 29 26 19 10 6 6 6 3 6 3 0 6 6 3 6 3 0 0 0 0 0 0 0 0 0 0 0 0 0 0 0 0 0 0 0 0 0 0 0 0

GEFSSE_con_cape1000_180.txt.gz
Probability
35 52 97 90 90 90 94 97 97 94 94 94 97 94 90 90 81 87 87 81 71 77 81 84 90 94 90 94 90 87 90 84 87 84 84 84 84 87 90 87 74 48 81
45 71 100 94 94 94 94 97 97 97 97 100 100 97 94 94 87 84 87 90 81 84 77 81 81 87 90 90 90 90 87 84 74 74 77 77 77 81 84 71 58 61 74
52 77 94 100 94 94 94 97 97 97 100 100 100 97 94 94 90 84 87 90 87 84 81 84 84 90 87 87 81 84 87 90 74 74 68 52 74 77 81 74 74 81 81
61 74 87 100 97 97 94 100 97 100 100 100 100 97 94 94 90 90 90 90 90 87 87 87 94 81 81 81 84 81 81 77 74 68 39 45 42 74 77 74 74 81 77
55 52 90 100 97 97 97 100 100 100 100 100 100 97 97 90 94 90 94 90 90 87 94 90 87 77 77 74 77 77 77 81 71 29 29 45 58 74 74 77 81 81 77
58 61 94 100 97 100 100 100 100 100 100 97 97 97 97 94 90 94 97 97 94 94 87 90 81 71 71 68 74 77 81 74 35 23 35 45 61 77 74 71 77 74 77
61 81 94 100 100 100 100 100 100 100 100 100 97 100 100 97 94 94 97 97 90 87 87 87 84 77 71 81 84 90 81 71 16 19 23 48 65 81 74 77 81 81 81
74 90 97 100 100 100 100 100 100 100 100 100 100 100 100 100 97 97 97 97 94 90 90 90 84 84 81 84 90 94 81 48 16 16 16 48 71 81 81 77 84 84 81
87 90 94 90 97 100 100 100 100 100 100 100 100 100 97 97 97 94 94 90 87 87 81 81 71 71 77 77 81 87 84 48 13 16 16 48 74 77 74 77 81 84 81
87 84 81 84 84 84 90 97 97 100 100 100 100 94 90 87 90 90 90 87 84 84 81 71 65 71 71 81 81 84 81 48 19 19 29 55 81 77 74 74 77 71 74
81 74 74 77 77 77 77 94 97 97 97 97 90 90 74 61 65 68 77 77 74 68 61 68 71 68 61 65 84 71 58 13 16 23 32 71 81 77 74 81 81 71 65
77 71 68 65 61 65 77 71 68 65 65 61 61 61 32 26 39 52 74 77 58 61 58 65 74 61 32 19 45 45 26 13 13 26 39 77 84 84 77 81 77 71 74
65 68 61 55 55 55 48 52 55 55 52 55 48 29 19 16 26 26 23 42 32 32 19 35 23 10 6 13 10 19 10 16 13 26 48 81 84 84 77 84 84 77 74
61 65 61 48 42 42 39 48 39 35 32 32 32 23 16 16 13 16 16 19 13 16 13 10 10 10 10 6 6 13 10 10 10 23 45 77 87 84 77 74 74 74 81
55 61 58 48 39 29 32 39 29 26 26 19 16 13 10 10 10 10 10 10 13 13 10 10 10 10 6 10 13 13 13 3 10 23 42 74 87 87 74 71 71 61 58
52 58 42 42 35 23 26 19 23 19 19 19 16 16 13 10 10 6 6 6 6 10 10 10 10 6 6 6 6 3 3 6 6 23 35 61 81 81 84 74 65 55 52
35 39 39 35 26 16 19 13 16 16 10 10 10 10 6 6 6 6 6 6 6 3 6 6 10 3 6 6 6 6 10 10 13 19 29 42 48 68 77 71 65 55 48
19 23 32 32 32 10 13 13 10 10 10 10 3 3 6 3 3 6 3 6 3 3 3 3 3 0 0 0 3 3 3 3 6 13 23 23 29 39 58 68 61 65 58
19 16 19 19 23 16 6 6 6 10 6 10 3 3 3 3 3 3 3 3 3 3 3 6 0 0 0 0 0 0 0 3 3 3 13 19 23 19 29 35 61 71 71
23 13 16 16 13 6 6 3 3 6 3 0 3 3 3 3 3 3 3 3 3 3 3 0 0 0 0 0 0 0 0 0 3 0 0 10 16 19 19 19 39 42 48
19 16 16 16 10 6 6 10 10 10 3 0 3 3 3 3 3 3 3 3 3 3 3 0 0 0 0 0 0 0 0 0 0 0 0 0 3 6 19 23 19 23 23
26 26 16 10 10 10 10 10 6 10 3 3 3 3 3 3 3 3 3 3 3 3 0 0 0 0 0 0 0 0 0 0 0 0 0 0 0 3 10 6 13 13 13
32 23 23 16 10 6 6 3 6 3 3 6 6 3 3 3 3 3 3 3 3 0 0 0 0 0 0 0 0 0 0 0 0 0 0 0 0 0 3 6 6 6 10
35 23 19 16 10 6 6 6 6 6 6 6 6 6 3 3 3 3 3 3 0 0 0 0 0 0 0 0 0 0 0 0 0 0 0 0 0 0 0 0 0 10 10
29 23 19 16 13 10 6 6 6 6 6 6 6 6 3 3 3 3 3 0 0 0 0 0 0 0 0 0 0 0 0 0 0 0 0 0 0 0 0 0 0 0 3
29 23 16 16 19 13 10 6 6 6 6 3 6 6 3 3 3 3 0 0 0 0 0 0 0 0 0 0 0 0 0 0 0 0 0 0 0 0 0 0 0 0 0

GEFSSE_con_cape1000_186.txt.gz
Probability
16 42 81 94 97 97 97 97 97 94 94 94 100 97 97 94 94 90 84 81 81 84 90 90 90 94 87 84 87 94 87 87 87 87 84 90 90 90 90 84 87 58 74
29 58 90 97 97 97 97 97 100 100 100 100 97 97 90 94 94 94 90 84 84 84 90 87 87 87 87 90 87 87 87 84 77 81 81 81 84 87 90 81 81 68 84
42 68 87 97 97 97 97 100 100 100 100 100 97 94 94 97 94 97 94 94 90 84 84 90 81 77 84 87 87 87 81 77 71 74 74 48 48 87 84 77 87 81 77
52 65 84 97 97 97 97 100 100 100 100 100 97 97 97 97 97 97 97 97 90 84 90 84 84 81 77 84 84 87 81 77 61 55 35 23 32 74 87 81 81 77 81
48 71 94 97 97 97 97 100 97 100 100 97 97 97 97 97 97 97 97 97 90 90 87 87 87 77 81 84 77 77 77 71 48 35 32 48 58 77 77 81 87 81 81
55 77 90 97 97 97 100 100 97 97 100 97 97 97 97 97 97 97 97 94 94 90 87 84 84 84 87 81 74 71 71 55 39 16 35 42 55 77 77 77 77 77 81
61 74 87 97 97 97 100 100 100 100 100 97 97 97 94 97 97 97 97 97 94 94 97 87 87 77 74 74 77 77 61 52 13 16 32 55 77 77 77 81 77 77 81
58 81 90 97 97 100 100 100 100 100 100 100 100 97 94 97 97 94 94 94 87 94 97 90 84 84 81 84 81 77 65 45 10 6 10 48 77 77 77 81 87 81 77
61 77 90 90 94 94 97 100 100 100 100 100 100 100 94 94 97 97 94 94 94 94 84 77 84 81 84 81 74 74 48 35 13 13 6 42 65 74 71 74 77 77 71
65 81 84 74 84 87 94 97 97 94 94 97 97 94 90 90 90 87 87 94 90 87 87 77 71 74 87 90 81 77 52 35 19 16 35 52 74 71 71 74 71 65 65
87 84 84 68 68 65 68 87 90 90 94 97 94 87 94 74 58 68 74 81 84 81 77 74 74 71 81 84 77 68 68 29 19 26 42 61 74 65 61 61 77 68 65
84 90 87 68 71 68 65 84 90 87 90 90 94 81 81 77 71 55 68 81 68 68 71 68 65 58 65 52 52 61 48 26 26 26 55 68 65 61 61 58 68 65 61
94 90 87 71 77 77 87 87 90 87 90 94 90 81 81 61 55 58 65 74 77 55 42 45 42 39 26 48 58 52 48 42 35 29 45 61 61 65 65 61 58 58 55
90 90 90 84 90 87 84 81 90 87 84 77 90 84 77 55 65 61 71 65 68 68 71 42 68 48 45 39 45 42 45 52 39 48 84 58 68 68 61 61 61 58 55
97 84 87 87 94 94 94 84 68 81 65 77 94 74 58 52 55 55 65 68 45 52 61 61 52 68 52 39 23 32 29 42 35 48 71 74 61 65 68 48 45 42 52
90 87 87 87 94 94 94 94 87 74 94 55 68 68 61 52 55 55 71 71 42 42 55 55 58 65 52 52 39 39 39 39 45 52 65 74 61 58 48 48 45 45 45
90 90 94 94 90 90 90 90 81 68 74 68 84 84 81 61 77 65 58 71 61 61 71 74 58 48 45 39 42 35 32 42 45 42 39 52 68 52 52 42 35 32 32
81 94 94 84 90 90 94 94 77 68 68 81 81 81 71 68 81 84 58 58 74 61 68 74 48 48 39 35 48 35 29 48 39 35 45 42 55 52 58 48 42 45 39
81 87 90 87 94 90 90 90 84 84 84 77 71 77 71 71 65 74 68 74 74 65 55 42 42 42 35 42 23 45 26 35 35 23 32 42 48 52 58 61 58 58 45
81 84 90 87 87 84 87 84 84 84 84 77 71 84 61 65 58 61 52 65 52 61 71 61 74 65 52 55 10 13 26 32 42 42 32 32 45 39 39 39 74 61 55
77 84 87 84 84 84 77 65 68 84 77 77 74 68 55 55 58 65 48 74 71 65 65 42 48 52 45 45 23 26 19 23 29 42 39 35 29 26 35 42 48 52 55
71 74 74 81 77 74 71 71 71 71 71 77 61 65 61 48 52 39 58 58 65 71 65 55 61 48 32 29 26 19 13 29 32 10 32 29 16 35 29 16 29 32 39
71 71 68 81 77 71 71 74 71 74 61 55 68 65 55 52 52 52 55 58 68 55 58 61 52 52 32 23 23 13 13 10 29 16 19 16 29 35 23 19 19 23 26
74 74 74 77 81 77 74 61 61 58 55 61 61 55 48 55 52 48 45 48 52 55 55 45 29 32 35 32 26 19 19 16 6 10 10 13 23 23 19 10 6 16 13
71 68 71 77 77 77 77 68 81 68 68 61 58 58 55 45 48 45 48 52 55 48 39 29 35 35 26 26 23 13 16 23 10 13 10 10 6 16 16 16 10 19 13
68 71 71 81 81 77 77 68 71 77 74 58 48 48 52 48 55 48 45 42 39 48 39 39 35 29 35 32 29 23 23 26 26 19 19 19 16 16 10 16 19 23 16

GEFSSE_con_cape1000_192.txt.gz
Probability
42 61 90 94 90 94 94 97 90 90 94 94 94 94 94 90 97 90 94 90 87 84 84 84 87 77 81 84 87 97 94 90 97 94 94 94 94 94 90 84 74 55 87
42 71 90 94 97 97 97 97 100 100 97 94 94 90 94 94 97 94 94 94 90 87 87 87 87 87 84 84 87 90 87 90 87 90 90 84 90 97 90 84 81 65 90
48 61 84 97 97 97 97 100 100 100 97 97 94 97 94 90 97 94 90 87 87 81 77 81 81 84 84 87 87 87 81 77 81 81 84 26 65 94 90 84 81 81 81
48 52 77 97 97 97 100 97 100 100 100 97 94 94 94 97 94 94 90 84 84 87 84 77 77 84 87 87 84 77 71 71 65 74 39 16 23 81 84 87 84 81 84
48 58 97 97 97 97 100 100 100 97 97 97 97 94 94 94 90 90 90 87 87 84 81 77 77 81 81 74 71 74 65 61 68 45 42 35 58 84 81 77 71 81 84
58 68 97 97 97 97 100 100 97 97 97 97 97 97 94 90 90 90 87 94 90 94 90 90 87 81 77 68 61 55 58 58 61 45 39 39 52 77 84 74 71 71 81
58 68 87 100 97 100 100 100 100 97 97 97 94 90 90 90 97 94 90 97 97 97 100 97 84 77 68 52 45 45 52 58 48 39 55 55 74 81 87 84 77 71 71
65 68 90 100 97 97 97 94 94 97 97 94 94 90 90 90 97 97 97 97 94 97 97 94 81 81 65 48 48 48 45 61 45 39 45 58 77 84 81 77 77 74 71
77 77 90 90 97 97 97 94 94 97 94 94 90 90 90 97 97 97 97 97 97 97 97 81 74 71 68 55 39 45 65 74 55 42 26 48 74 81 77 77 71 65 71
84 81 87 84 90 87 94 94 94 94 97 94 90 90 90 94 94 94 100 100 90 90 81 71 71 65 58 52 48 55 77 77 29 32 26 48 81 74 68 68 55 61 55
90 94 81 81 84 77 81 90 94 94 90 94 84 84 90 77 68 84 74 87 84 81 77 71 71 74 68 61 65 74 74 42 32 35 26 71 81 71 61 58 52 48 48
90 90 97 77 77 77 68 84 87 74 87 87 87 84 87 87 81 68 77 81 74 68 71 71 77 74 74 58 68 74 61 48 35 29 42 84 77 74 61 65 65 42 45
90 90 87 87 90 81 87 84 87 87 90 87 87 87 87 87 84 61 65 68 81 68 68 77 74 55 61 65 68 71 68 42 29 19 58 87 84 58 45 48 58 55 52
87 87 90 90 90 90 90 90 90 90 87 84 90 87 90 90 87 84 81 87 94 90 87 77 81 77 71 65 61 58 45 58 48 35 58 84 84 74 52 42 48 58 55
94 87 94 90 90 90 90 90 84 94 90 94 94 90 90 94 90 87 90 94 90 87 87 87 81 84 77 74 65 58 55 55 58 58 42 84 77 77 71 55 55 48 58
90 94 94 90 90 90 90 90 94 90 94 87 90 90 84 84 84 90 90 90 87 90 90 87 84 87 90 81 71 61 65 48 58 65 55 65 71 74 74 58 55 55 45
87 94 94 90 90 90 90 90 90 90 94 94 94 87 84 84 87 84 87 87 90 87 87 90 84 77 84 81 77 68 74 61 52 65 55 52 55 71 65 58 58 48 52
87 90 94 90 90 90 90 90 90 90 94 94 90 90 84 84 81 81 84 84 87 84 87 94 90 87 90 84 84 81 74 68 61 65 58 65 68 42 58 61 61 55 52
87 94 94 94 90 90 90 94 94 94 94 94 90 94 84 81 84 81 84 84 81 84 84 74 87 94 90 81 77 77 71 77 68 52 61 71 74 71 65 58 68 65 55
87 87 90 94 97 94 94 94 94 94 94 87 90 87 84 84 77 77 77 77 74 84 87 87 90 87 90 84 45 39 61 68 65 65 55 61 71 65 58 42 61 52 61
87 90 90 97 94 94 90 90 87 87 87 87 84 81 81 71 68 68 71 84 71 77 74 71 81 77 81 81 74 58 55 55 58 68 58 55 45 61 45 61 58 48 45
87 94 94 90 90 90 90 90 87 84 87 87 84 84 81 71 65 55 74 81 68 77 68 68 81 77 74 68 61 52 39 55 52 26 55 61 45 48 48 29 45 48 39
87 87 87 94 90 87 84 87 84 87 87 81 87 84 77 71 65 65 74 68 74 74 84 74 68 77 71 77 55 55 45 42 45 42 52 52 61 52 42 45 45 42 39
90 87 94 94 94 87 84 81 77 77 77 84 87 74 74 61 65 61 58 65 74 77 77 77 71 81 71 58 52 55 48 55 35 32 48 55 45 55 45 13 19 32 39
87 84 87 94 90 81 77 84 87 81 81 81 74 71 68 55 61 61 61 61 68 74 71 77 81 74 74 55 52 45 42 42 29 26 19 26 39 42 42 42 29 26 32
90 84 81 84 90 81 84 84 81 84 84 81 77 74 68 65 55 61 65 68 65 68 71 68 71 58 61 52 52 42 39 35 39 23 13 13 19 42 32 45 35 35 32

GEFSSE_con_cape1000_198.txt.gz
Probability
48 84 97 90 94 97 94 90 90 94 94 94 94 94 87 87 84 84 81 81 77 84 84 84 87 90 90 87 87 90 90 94 97 97 97 84 87 94 87 90 71 55 77
48 81 97 97 94 94 94 94 97 97 94 94 94 94 94 94 90 90 90 87 90 81 84 77 81 90 94 90 94 94 94 94 94 87 90 87 81 84 81 77 68 65 77
61 71 94 97 97 94 100 100 97 97 94 94 97 97 97 94 90 87 84 87 84 84 77 81 81 84 94 97 94 97 94 84 81 84 68 32 71 87 87 81 77 81 87
61 65 77 97 100 100 100 100 100 97 97 94 97 97 97 97 97 90 84 81 84 84 81 77 77 77 81 87 100 94 87 81 74 58 13 23 52 81 87 77 81 81 81
58 65 90 100 100 100 100 100 100 100 94 94 97 97 97 97 97 90 84 81 84 84 81 77 81 77 74 74 87 87 87 77 68 23 13 16 45 90 87 87 81 81 81
58 74 97 100 100 100 100 100 100 100 97 94 94 97 100 97 97 90 84 84 87 90 94 90 84 74 68 71 77 77 74 65 32 6 13 23 55 87 81 77 84 81 81
68 77 100 100 100 100 100 100 100 100 100 94 97 94 94 100 97 97 90 90 90 84 81 74 74 68 68 71 65 77 71 65 6 6 13 23 61 84 84 77 81 81 77
77 81 100 100 100 100 100 100 100 97 97 94 90 94 94 97 97 97 94 90 87 81 77 81 71 61 58 52 68 77 71 58 13 6 16 39 81 84 77 74 81 74 77
71 84 90 94 100 100 100 100 100 97 97 94 94 94 94 97 97 97 94 94 90 87 81 74 48 45 45 61 77 81 77 65 3 13 19 52 84 84 77 74 71 71 71
68 71 71 81 87 87 97 100 100 94 94 94 94 94 90 90 94 90 94 90 81 77 81 68 48 39 52 65 77 77 81 45 6 10 16 61 84 81 74 77 68 68 71
55 61 61 65 68 74 81 94 90 90 90 90 90 90 84 45 48 74 84 87 81 71 74 71 55 48 55 55 84 81 48 10 13 16 19 74 87 81 74 71 71 68 68
48 52 45 55 52 61 74 77 71 81 84 65 68 68 32 19 26 39 84 90 84 81 74 71 74 65 45 13 32 39 10 10 10 19 35 90 90 84 71 71 71 65 65
39 42 32 42 42 39 48 55 39 39 39 35 35 29 29 16 19 29 39 55 52 52 23 26 39 26 13 10 6 6 6 6 3 13 52 90 90 87 81 68 68 71 58
42 42 32 29 29 29 39 42 35 29 29 29 26 23 16 10 16 13 13 13 16 13 10 16 10 10 10 13 10 10 6 6 3 16 39 87 87 81 77 61 58 58 65
39 52 42 39 29 29 29 32 32 26 39 35 23 16 16 13 13 6 13 10 6 6 10 6 10 6 3 10 13 6 6 6 3 13 29 84 87 87 71 65 68 68 58
55 52 48 52 39 32 32 32 32 35 29 35 29 23 16 6 10 13 13 13 16 13 13 6 6 6 6 3 10 6 0 0 3 16 19 58 87 84 81 71 65 68 61
61 52 61 61 55 52 48 48 48 48 35 39 29 26 23 13 13 16 13 19 19 13 3 6 0 10 6 6 6 3 0 0 3 6 10 23 42 71 77 71 68 68 74
65 68 71 71 55 55 52 52 48 42 35 29 23 19 35 32 26 26 13 6 6 16 16 6 3 10 6 3 3 3 0 0 3 3 0 10 19 32 61 68 71 71 74
71 65 61 65 58 55 55 48 45 29 35 26 23 16 35 32 23 16 10 13 6 6 10 13 6 6 6 3 6 3 0 0 3 3 0 0 3 6 16 45 71 71 71
65 65 68 71 61 58 58 45 35 29 39 23 23 16 23 29 26 19 10 6 6 6 3 0 0 0 0 0 3 0 0 3 0 0 0 6 0 6 6 13 39 45 61
74 71 68 68 68 58 58 52 39 35 26 29 26 23 19 23 26 19 19 16 3 0 0 0 0 0 0 0 0 0 0 0 3 0 0 3 3 3 3 3 3 6 13
77 77 68 68 71 55 48 42 42 35 32 32 39 26 16 23 19 23 16 13 6 3 3 0 0 0 0 0 0 0 0 0 0 0 0 0 0 3 3 6 0 3 3
77 77 74 71 68 61 48 48 48 35 29 35 26 23 23 23 19 19 13 3 6 0 0 0 0 0 0 0 0 0 0 0 0 0 0 0 0 0 3 3 3 3 0
77 77 71 68 71 71 58 52 48 35 26 29 29 26 19 23 26 16 16 3 3 3 0 0 0 0 0 0 0 0 0 0 0 0 0 0 0 0 0 3 3 6 6
77 77 71 68 71 65 61 55 45 35 29 19 23 26 23 23 23 26 16 16 10 6 0 0 0 0 0 0 0 0 0 0 0 0 0 0 0 0 0 0 3 3 3
74 77 71 71 68 61 65 55 48 35 26 29 29 26 23 23 23 26 23 19 16 16 3 0 0 0 0 0 0 0 0 0 0 0 0 0 0 0 0 0 0 0 3

GEFSSE_con_cape1000_204.txt.gz
Probability
26 45 90 94 94 94 90 90 90 90 90 87 84 81 84 81 81 81 87 81 87 90 90 94 90 94 87 87 84 84 87 94 94 94 77 81 87 84 84 77 77 61 81
35 61 87 94 90 90 90 90 94 94 94 94 94 90 84 81 84 90 90 87 90 81 84 87 90 90 90 90 94 87 87 87 90 81 84 81 81 81 77 68 68 65 74
61 68 77 94 94 94 90 94 94 94 94 90 90 94 90 90 87 87 87 90 90 81 74 81 90 87 90 87 87 90 90 84 81 81 74 35 61 81 77 68 71 77 77
61 61 65 90 94 97 97 94 94 97 97 94 94 90 87 90 87 87 87 87 74 74 74 74 77 77 90 90 90 87 84 87 74 61 29 35 45 65 77 81 74 77 77
55 52 71 97 97 97 97 97 94 97 97 97 94 87 87 84 87 84 87 84 74 77 77 77 77 71 77 81 81 81 77 74 65 32 26 35 58 84 81 71 74 74 71
48 58 84 100 100 97 97 97 97 94 97 97 97 94 90 87 87 87 87 87 84 84 81 77 77 74 71 71 77 81 77 68 39 16 26 39 58 84 74 71 74 81 81
52 61 87 100 100 97 97 94 97 90 94 94 97 97 90 90 90 90 87 87 84 84 74 77 81 68 68 71 71 71 71 58 3 16 16 45 65 87 74 71 71 77 74
61 77 94 97 100 100 100 97 100 100 100 100 100 100 94 90 90 87 87 84 84 74 77 65 61 68 71 74 74 71 77 39 19 16 23 48 65 81 71 71 71 77 77
74 77 81 90 97 97 97 100 94 94 94 94 97 97 94 90 87 87 87 87 77 87 71 68 65 68 68 65 74 71 68 45 10 16 23 55 71 71 71 68 71 74 77
68 71 71 77 77 87 94 97 97 90 94 94 94 90 90 90 84 81 87 81 71 68 71 61 52 65 71 68 74 71 77 45 13 19 29 55 71 71 55 61 71 65 65
52 52 55 61 61 68 77 90 90 84 90 90 87 94 74 55 55 61 68 77 74 71 68 65 61 61 68 68 74 77 48 13 16 19 35 61 77 77 65 68 71 58 61
52 52 52 52 52 58 77 74 65 65 58 52 45 35 16 19 23 48 68 77 74 71 65 71 71 39 29 35 45 39 13 16 19 29 42 71 81 77 65 71 58 61 61
52 55 52 48 45 48 42 48 39 39 32 29 26 13 13 10 16 26 32 42 35 29 23 26 13 10 6 10 13 10 13 16 19 26 42 81 87 81 61 68 68 52 58
35 45 45 45 39 26 32 42 26 26 26 19 16 13 10 3 10 16 19 16 13 13 13 6 6 3 6 10 10 10 10 16 13 26 48 84 84 81 61 58 65 65 61
29 42 42 39 29 29 23 29 26 23 26 16 13 13 10 6 6 6 10 10 10 10 3 0 0 6 3 6 10 10 6 3 10 16 35 74 87 84 68 58 52 65 58
26 29 35 35 32 26 23 23 26 23 23 13 13 13 10 6 3 3 0 6 6 6 3 6 6 6 3 10 16 13 6 3 6 10 26 45 71 77 65 52 48 45 42
23 26 26 26 26 16 19 19 23 23 19 16 13 13 13 13 6 0 3 3 3 0 0 6 3 3 3 10 19 10 16 3 6 6 16 23 48 58 71 58 52 52 48
16 16 26 42 23 16 10 13 19 13 13 10 10 13 13 13 3 3 3 6 3 0 3 0 0 6 6 3 6 6 6 10 3 3 13 13 26 39 55 58 61 61 61
16 16 19 23 23 19 6 6 13 13 10 6 10 10 16 19 16 3 3 3 0 0 0 0 3 3 0 0 3 0 0 0 3 3 10 10 16 16 26 42 61 71 68
26 23 23 19 23 19 13 13 16 16 13 6 10 10 10 13 23 3 0 0 0 0 0 0 0 0 0 0 0 0 0 0 0 0 0 0 3 13 16 23 45 58 61
26 23 32 29 29 23 23 26 19 19 19 13 13 16 13 13 29 10 3 0 0 0 0 0 0 0 0 0 0 0 0 0 0 0 0 0 3 3 16 16 19 29 42
39 29 29 32 39 26 26 23 16 19 16 16 16 13 16 16 19 13 3 0 0 0 0 0 0 0 0 0 0 0 3 3 3 0 0 0 0 3 13 10 16 13 13
48 45 48 39 35 35 23 19 16 13 16 16 13 13 16 16 16 13 10 6 0 0 0 0 0 0 0 0 0 0 0 0 0 0 0 0 0 0 0 13 6 10 0
52 55 52 42 42 32 26 26 19 19 26 26 19 16 13 13 16 16 13 6 3 0 0 0 0 0 0 0 0 0 0 0 0 0 0 0 0 0 0 0 10 10 6
61 61 58 48 39 32 29 23 19 19 19 13 13 16 13 13 13 16 16 10 3 3 0 0 0 0 0 0 0 0 0 0 0 0 0 0 0 0 0 0 0 0 3
58 65 61 52 45 29 29 26 19 19 13 13 10 13 13 10 13 13 13 13 6 6 3 0 0 0 0 0 0 0 0 0 0 0 0 0 0 0 0 0 0 0 0

GEFSSE_con_cape1000_210.txt.gz
Probability
16 29 84 97 97 90 90 90 90 90 90 90 87 87 90 90 87 90 84 84 84 94 94 94 90 90 87 87 81 77 71 81 84 84 77 77 71 74 84 77 74 55 74
19 42 90 94 97 94 94 94 87 87 87 87 87 90 87 94 87 84 84 87 81 87 87 87 90 84 84 81 81 81 81 81 81 84 77 71 68 71 68 58 77 71 74
29 45 77 94 94 90 90 94 94 90 90 90 94 94 90 94 87 90 90 84 84 84 87 87 87 84 81 81 77 81 81 84 77 74 77 39 42 65 71 65 68 74 74
32 45 71 90 94 94 90 94 94 94 94 94 94 94 90 90 90 90 87 84 87 87 87 84 84 81 81 81 77 81 84 81 58 48 32 26 39 61 61 65 65 74 74
35 52 90 94 90 90 97 97 100 97 90 90 94 90 90 90 87 90 87 87 84 81 77 81 84 77 74 74 77 77 77 65 42 32 29 39 58 55 58 68 71 65 68
32 52 87 94 94 97 97 100 100 100 94 90 90 90 94 97 94 90 87 87 84 81 81 81 84 77 81 84 81 71 61 48 26 19 35 45 48 61 65 68 68 61 65
35 52 68 97 97 94 97 100 100 100 94 94 90 90 90 90 90 84 81 84 84 77 74 77 74 71 77 74 71 65 58 45 6 10 26 45 55 61 65 68 68 61 61
39 45 74 97 97 97 97 97 97 100 97 94 90 90 90 90 90 90 87 87 87 81 74 77 68 68 61 61 71 55 52 26 0 3 23 42 52 61 55 61 65 61 61
35 58 71 81 90 94 100 97 97 97 97 94 90 90 87 87 90 90 90 90 90 81 81 74 71 55 58 61 68 61 42 26 13 6 13 39 52 58 58 61 61 65 61
48 55 65 71 77 71 81 97 97 94 94 94 94 90 87 74 77 74 87 87 90 77 81 74 65 65 65 65 65 58 32 35 16 13 19 45 61 52 48 52 58 61 65
61 65 65 74 74 74 71 71 84 90 94 90 87 74 74 58 48 71 68 87 84 81 71 71 61 61 61 68 61 52 52 29 16 19 26 61 65 58 42 45 48 52 58
65 71 81 77 71 65 58 81 71 77 74 71 74 68 77 71 58 55 65 81 77 74 61 58 52 58 52 52 48 55 48 26 19 16 45 74 65 58 52 48 42 45 52
65 65 77 87 84 68 71 68 68 71 84 74 65 65 77 52 45 42 61 68 74 61 35 45 42 42 42 45 45 39 39 29 32 19 45 74 77 55 35 42 42 48 52
58 68 81 90 94 90 74 65 71 55 65 58 65 61 55 52 45 52 65 52 61 61 71 45 65 52 45 52 42 35 23 29 32 39 74 71 81 68 55 42 52 45 39
61 74 81 94 97 97 97 77 55 58 52 65 77 74 68 52 48 55 58 65 45 58 61 55 58 55 52 45 42 35 29 32 29 32 61 61 71 74 58 45 52 45 48
65 74 84 84 90 94 90 90 68 52 81 61 58 61 77 48 61 61 65 71 48 42 35 48 55 61 52 48 52 45 42 35 39 42 35 52 55 68 58 52 48 48 55
71 81 77 84 87 94 90 87 61 48 68 65 65 74 81 55 68 58 45 45 42 52 58 61 52 48 58 61 45 52 48 42 39 45 42 52 45 48 52 42 55 45 42
71 87 74 65 74 94 90 94 74 55 58 74 77 77 81 74 84 77 58 32 52 48 61 65 55 48 52 55 42 45 58 52 42 48 48 42 42 45 52 55 52 48 42
84 94 90 81 84 84 90 90 87 87 84 71 77 77 81 77 77 77 71 68 58 55 58 52 55 52 55 58 42 61 48 52 52 42 42 48 48 55 61 58 68 71 55
94 94 90 90 90 90 90 94 94 84 77 84 90 94 84 81 77 74 74 77 52 55 68 71 71 68 61 61 23 16 26 48 61 58 42 42 52 42 52 48 65 61 61
90 90 90 90 87 90 90 90 84 84 81 74 77 84 81 74 71 74 65 71 71 68 71 58 58 52 52 55 45 45 42 26 35 48 48 45 32 29 42 52 48 42 58
87 90 90 87 87 90 94 90 87 84 77 77 81 84 81 74 71 58 71 68 68 71 65 61 61 58 48 58 52 42 39 16 39 3 42 48 29 23 23 16 48 45 35
84 87 87 87 90 90 90 87 87 87 84 71 84 81 87 74 74 65 68 65 71 65 65 68 68 68 52 52 45 32 19 23 16 23 23 19 42 35 23 23 32 42 42
90 84 87 90 90 94 87 87 84 84 81 81 77 77 81 84 68 71 65 61 68 71 74 65 61 61 68 58 48 55 45 23 19 19 16 19 32 45 32 13 23 29 55
90 87 87 87 94 90 87 87 87 90 84 84 81 77 84 84 71 58 65 65 71 65 71 65 68 65 65 48 52 35 32 45 23 19 16 16 16 13 23 26 26 26 48
90 87 87 90 90 94 87 87 90 87 87 87 90 81 81 81 74 65 58 65 68 68 68 71 65 61 71 71 65 42 39 32 23 19 16 23 19 10 13 19 16 23 39